Yaogan 39 01 zu 03 xing

operational
NORAD ID: 57731 Int'l Des: 2023-130 Owner: ZZB Country: CN Constellation: yaogan
LEOCIRCULAR

关于 Yaogan 39 01 zu 03 xing

正在加载描述...

实时位置

正在加载3D地球...

即将过境

高度历史

Altitude vs Time

uPlot chart will show altitude changes over time

两行轨道根数

1 57731U 23130E 26071.25176281 .00007398 00000-0 36310-3 0 9993
2 57731 34.9937 36.1854 0002086 237.9434 122.1076 15.17393603140737
Epoch: Mar 12, 2026 • Age: 37 hours

当前状态

高度 512.9 km
速度 7.61 km/s
星下点 22.39°N, 171.47°E
发射日期 Aug 31, 2023
运行时间 2.5 years
类型 military

技术详情

分类 Payload
质量 300.00 kg
干质量 300.00 kg
总质量 300.00 kg
长度 2.50 m
直径 2.50 m
跨度 5.00 m
形状 Box + 2 Pan
制造商 DFHZ
阶段状态 In Orbit
所有者/国家 ZZB/CN

大型星座

Loading constellations...